SCP
0 0 0 0 0 0 0 0 0 0 0 0 0 0 0 0 0 0 0 1 1 1 0 0 0 0 0 0 0 0 0 0 0 0 0 0 0 0 0 0 0 0 0 0 0 0 0 0 0
0 0 0 0 0 0 0 0 0 0 0 0 0 0 0 0 0 0 0 1 1 1 0 0 0 0 0 0 0 0 0 0 0 0 0 0 0 0 0 0 0 0 0 0 0 0 0 0 0
0 0 0 0 0 0 0 0 0 0 0 0 0 0 0 0 0 0 0 1 1 0 0 0 0 0 0 0 0 0 0 0 0 0 0 0 0 0 0 0 0 0 0 0 0 0 0 0 0
0 0 0 0 0 0 0 0 0 0 0 0 0 0 0 0 0 0 0 1 1 0 0 0 0 0 0 0 0 0 0 0 0 0 0 0 0 0 0 0 0 0 0 0 0 0 0 0 0
0 0 0 0 0 0 0 0 0 0 0 0 0 0 0 0 0 0 0 0 1 1 0 0 0 0 0 0 0 0 0 0 0 0 0 0 0 0 0 0 0 0 0 0 0 0 0 0 0
0 0 0 0 0 0 0 0 0 0 0 0 0 0 0 0 0 0 0 0 1 1 1 0 0 0 0 0 0 0 0 0 0 0 0 0 0 0 1 1 1 1 1 1 1 1 0 0 0
-0 0 0 0 0 0 0 0 0 0 0 0 0 0 0 0 0 0 0 0 1 1 1 1 0 0 0 0 0 0 0 0 0 0 0 0 1 1 1 1 1 1 1 1 1 1 1 1 1
-0 -0 0 0 0 0 0 0 0 0 0 0 1 1 1 0 0 0 0 0 1 1 1 1 0 0 0 0 0 0 0 0 0 0 0 1 1 1 1 1 1 1 1 1 1 1 1 1 1
-0 -0 0 0 0 0 0 0 0 0 0 1 1 1 1 0 0 0 0 0 1 1 1 1 1 1 0 1 1 1 0 1 1 1 1 1 1 1 1 1 1 1 1 1 1 1 1 1 1
0 0 0 0 0 0 0 0 0 0 1 1 1 1 1 1 1 1 1 1 1 1 1 1 1 1 1 1 1 1 1 1 1 1 1 1 1 1 1 1 2 2 2 2 2 1 1 1 1
0 0 0 0 0 0 0 0 0 1 1 1 1 1 1 1 2 2 2 2 2 1 1 2 2 2 1 1 1 1 1 1 1 1 1 2 1 1 1 1 2 2 2 2 2 2 2 1 1
0 0 0 0 0 0 0 0 1 1 1 2 2 2 3 3 3 3 3 3 3 2 2 2 3 3 2 2 2 1 1 2 2 2 2 2 2 2 2 2 2 2 2 2 2 2 2 2 1
0 0 0 0 0 0 0 0 1 1 1 2 2 3 4 4 5 5 6 6 5 4 3 3 3 3 3 2 2 2 2 2 2 2 2 2 2 2 2 2 2 2 2 2 2 2 2 2 2
0 0 0 0 0 0 0 0 1 1 1 2 2 3 3 4 5 6 6 6 6 5 4 3 3 3 3 2 2 2 2 2 2 2 2 2 2 2 2 2 2 2 2 2 2 2 2 2 2
0 0 0 0 0 0 0 0 1 1 1 1 1 2 2 3 4 4 5 5 4 4 4 3 3 2 2 2 2 2 2 2 2 2 2 2 2 2 2 2 2 2 2 2 1 2 2 2 2
0 0 0 0 0 0 0 0 1 1 1 1 1 1 1 2 2 2 3 3 3 3 3 3 2 2 2 2 2 2 1 2 2 2 2 2 2 2 2 2 2 2 1 1 1 1 1 1 1
0 0 0 0 0 0 0 1 1 1 1 1 1 1 1 1 1 1 1 1 2 2 2 2 2 2 2 2 2 1 1 1 1 2 2 1 1 1 1 1 1 1 1 1 1 1 1 1 1
0 0 0 0 0 0 0 1 1 1 1 1 0 0 1 1 1 1 1 1 1 1 1 1 1 1 1 1 1 1 1 1 1 1 1 1 1 1 1 1 1 1 1 1 1 1 1 1 1
0 0 0 0 0 0 0 0 1 0 0 0 0 0 0 0 0 0 0 0 0 1 1 1 1 1 1 1 1 1 1 1 1 1 1 1 1 1 1 1 1 1 1 1 1 0 0 0 0
0 0 0 0 0 0 0 0 0 0 0 0 0 0 0 0 0 0 0 0 0 0 0 0 1 1 1 1 1 1 1 1 1 1 1 0 0 0 0 0 0 0 0 0 0 0 0 0 0
0 0 0 0 0 0 0 0 0 0 0 0 0 0 0 0 0 0 0 0 0 0 0 0 0 0 0 0 0 0 0 0 0 0 0 0 0 0 0 0 0 0 0 0 0 0 0 0 0
0 0 0 0 0 0 0 0 0 0 0 0 0 0 0 0 0 0 0 0 0 0 0 0 0 0 0 0 0 0 0 0 0 0 0 0 0 0 0 0 0 0 0 0 0 0 0 0 0
0 0 0 0 0 0 0 0 0 0 0 0 0 0 0 0 0 0 0 0 0 0 0 0 0 0 0 0 0 0 0 0 0 0 0 0 0 0 0 0 0 0 0 0 0 0 0 0 0
0 0 0 0 0 0 0 0 0 0 0 0 0 0 0 0 0 0 0 0 0 0 0 0 0 0 0 0 0 0 0 0 0 0 0 0 0 0 0 0 0 0 0 0 0 0 0 0 0
0 0 0 0 0 0 0 0 0 0 0 0 0 0 0 0 0 0 0 0 0 0 0 0 0 0 0 0 0 0 0 0 0 0 0 0 0 0 0 0 0 0 0 0 0 0 0 0 0
0 0 0 0 0 0 0 0 0 0 0 0 0 0 0 0 0 0 0 0 0 0 0 0 0 0 0 0 0 0 0 0 0 0 0 0 0 0 0 0 0 0 0 0 0 0 0 0 0
0 0 0 0 0 0 0 0 0 0 0 0 0 0 0 0 0 0 0 0 0 0 0 0 0 0 0 0 0 0 0 0 0 0 0 0 0 0 0 0 0 0 0 0 0 0 0 0 0
0 0 0 0 0 0 0 0 0 0 0 0 0 0 0 0 0 0 0 0 0 0 0 0 0 0 0 0 0 0 0 0 0 0 0 0 0 0 0 0 0 0 0 0 0 0 0 0 0
0 0 0 0 0 0 0 0 0 0 0 0 0 0 0 0 0 0 0 0 0 0 0 0 0 0 0 0 0 0 0 0 0 0 0 0 0 0 0 0 0 0 0 0 0 0 0 0 0
0 0 0 0 0 0 0 0 0 0 0 0 0 0 0 0 0 0 0 0 0 0 0 0 0 0 0 0 0 0 0 0 0 0 0 0 0 0 0 0 0 0 0 0 0 0 0 0 0
Wind_Speed
12 12 11 8 6 5 7 5 10 11 11 9 8 9 16 17 13 9 10 18 23 20 18 17 16 14 13 12 11 11 11 12 11 11 10 10 9 9 9 8 8 7 7 7 8 8 8 8 8
13 13 10 7 6 4 2 6 9 8 7 5 7 11 17 16 13 12 12 18 22 19 16 15 16 15 13 12 11 10 11 11 11 11 10 10 10 9 9 8 7 7 6 7 8 7 7 7 7
14 15 8 8 9 5 3 7 7 6 7 6 8 13 12 11 12 10 14 18 20 17 15 16 17 15 14 12 11 10 10 11 11 11 10 10 10 9 9 8 7 7 6 7 8 7 7 7 6
9 10 8 11 14 5 5 7 6 5 7 5 7 12 11 9 10 13 16 19 19 17 17 17 16 15 14 12 11 10 10 10 10 10 10 9 9 9 9 8 8 7 7 8 8 8 7 7 6
11 8 12 14 13 4 4 6 5 6 6 8 12 14 12 12 14 16 16 18 17 17 17 16 16 15 13 12 11 10 9 9 9 9 9 9 9 9 9 9 8 8 7 7 8 8 8 8 7
8 9 13 13 8 2 4 6 6 8 6 8 10 14 11 12 13 14 15 15 17 18 17 15 15 14 13 12 11 10 9 9 9 9 9 9 9 9 9 9 9 9 9 9 8 8 9 9 9
11 12 17 19 13 5 4 4 6 5 7 8 7 13 10 11 12 13 13 13 15 18 17 14 13 12 12 11 10 10 9 9 9 9 9 9 9 9 9 9 10 10 10 10 10 10 10 10 10
11 12 18 18 15 5 6 4 5 6 7 7 11 10 10 11 11 13 12 11 13 17 16 14 13 12 10 10 11 10 10 9 9 9 9 9 10 10 11 11 11 12 12 12 12 12 12 12 12
14 12 16 18 12 6 8 6 5 5 9 12 14 11 12 13 12 12 10 10 10 13 13 12 13 12 10 10 12 11 10 10 9 9 11 10 9 11 11 15 16 16 15 14 14 14 13 13 13
13 13 18 15 12 10 7 5 5 2 11 11 11 10 12 10 9 9 9 9 8 8 9 9 9 9 7 6 8 7 8 9 9 8 9 8 8 7 10 13 19 19 18 17 16 15 14 12 9
17 18 18 17 12 10 9 6 6 6 11 12 10 8 8 9 7 5 6 7 9 5 4 8 7 7 3 1 4 3 3 5 8 8 7 7 6 5 7 4 9 12 15 11 12 13 10 10 8
19 17 16 15 11 10 9 6 5 14 12 12 10 10 9 8 7 7 7 7 8 5 4 6 7 6 3 4 2 1 1 1 3 5 6 5 3 4 4 4 3 6 6 8 8 7 11 11 11
17 16 15 13 11 9 7 3 4 13 13 13 13 13 13 12 11 12 12 11 9 7 6 7 8 7 5 4 4 4 4 4 4 2 2 3 3 4 4 4 4 5 4 6 8 8 10 10 10
13 14 12 11 9 6 5 2 5 12 12 12 12 12 12 13 14 14 13 12 11 9 9 7 7 7 4 3 2 3 4 3 4 3 4 3 2 3 4 5 5 6 6 6 5 7 7 7 7
13 14 13 11 8 6 6 5 9 10 10 10 9 9 11 12 13 13 12 11 10 9 9 7 6 6 4 4 4 3 3 4 3 3 4 4 4 4 4 4 5 6 6 7 6 7 6 6 7
14 14 12 6 4 6 9 7 9 8 8 8 8 8 9 9 10 10 10 9 9 9 8 8 7 7 5 4 4 3 3 3 3 3 3 5 6 5 5 4 5 5 5 5 6 7 6 6 6
11 7 5 4 7 5 6 10 9 8 9 9 8 8 8 8 8 8 8 8 8 7 7 6 7 7 6 5 4 3 2 2 2 2 2 3 5 5 5 4 4 5 4 5 7 6 5 6 7
6 4 2 3 5 7 3 11 10 9 10 10 9 8 7 7 7 7 7 7 7 7 6 5 5 6 6 5 4 3 3 3 2 1 1 3 4 5 5 5 4 4 3 4 4 5 5 6 7
8 7 7 5 5 6 4 9 10 9 9 10 10 9 8 8 8 6 6 6 7 6 5 4 5 5 4 4 5 4 4 4 3 1 2 3 4 4 4 5 4 4 3 4 4 4 5 5 5
6 3 1 2 4 7 5 7 8 7 7 8 10 9 9 9 8 6 5 5 6 5 3 2 4 4 4 4 4 4 4 4 3 2 1 2 3 3 4 4 4 4 3 4 4 4 3 4 4
8 6 4 5 7 8 5 7 9 7 6 7 8 9 9 9 8 6 5 4 3 2 1 2 2 2 4 5 5 5 5 5 4 4 2 1 2 3 3 3 3 4 3 4 4 3 4 3 4
5 6 8 6 5 5 4 2 6 8 8 8 8 9 8 7 6 5 4 3 1 0 0 1 1 2 3 4 5 7 7 6 6 4 4 5 4 4 3 3 3 3 3 4 4 3 2 3 4
5 5 4 7 8 7 7 4 1 7 8 9 9 8 7 6 5 3 2 1 1 2 2 1 1 2 3 4 6 6 7 6 6 7 8 7 6 5 4 3 2 2 2 3 4 4 3 2 4
6 5 5 12 9 7 4 3 5 8 9 9 8 7 5 3 3 2 1 1 2 3 4 3 3 4 4 5 6 6 7 7 8 9 9 8 5 4 4 3 2 2 2 2 3 3 4 3 5
8 7 3 4 0 8 10 6 5 8 9 9 7 5 3 2 1 1 2 3 3 4 4 4 3 4 5 5 6 6 7 8 9 9 7 7 6 5 5 5 2 3 3 3 3 3 3 4 4
8 7 4 6 6 3 6 4 5 9 9 7 5 2 0 1 1 3 3 3 4 5 5 5 5 4 5 5 6 6 8 7 6 7 8 8 7 7 7 6 5 4 4 5 4 3 4 3 3
8 7 9 9 9 2 5 7 7 7 7 4 2 2 3 4 5 6 6 7 7 7 6 6 5 5 5 6 7 7 6 6 7 7 8 8 7 8 8 8 7 7 6 5 5 4 5 4 4
7 9 7 7 8 7 3 7 6 5 4 5 5 6 7 7 8 9 9 9 8 7 6 6 5 5 6 7 6 8 7 7 7 8 8 8 8 8 8 8 8 8 7 7 6 6 6 6 5
6 7 7 7 8 8 6 7 8 5 3 5 7 7 7 8 9 9 8 8 8 8 8 7 7 6 6 6 6 6 6 7 8 7 8 7 8 8 8 8 9 9 8 8 7 8 7 7 6
4 5 6 5 6 7 6 7 4 2 5 7 7 8 8 8 9 9 9 9 9 9 10 9 9 8 7 7 6 7 7 7 8 10 8 8 8 8 9 9 9 10 10 8 8 9 9 8 8
Wind_Direction
176 193 210 227 242 241 280 8 42 41 44 44 44 37 56 49 45 73 90 102 112 120 129 134 132 131 129 127 129 138 145 148 147 145 145 144 143 142 141 140 138 135 130 125 122 119 114 111 109
189 198 213 233 241 255 320 31 46 52 52 40 62 54 64 60 66 92 98 110 117 124 135 134 134 133 132 130 132 139 147 151 151 151 151 152 151 152 153 153 153 153 147 138 133 129 125 122 122
214 218 239 243 243 261 4 37 36 61 76 46 71 69 55 64 77 93 115 119 119 125 127 131 139 137 137 136 136 142 149 154 155 156 157 158 159 160 162 165 166 166 161 153 147 143 140 139 139
228 223 242 253 271 296 24 33 12 42 77 63 67 80 73 55 86 112 125 121 121 129 129 136 142 142 142 143 145 148 152 156 160 161 162 164 166 170 173 173 175 176 172 164 159 156 155 157 159
239 252 244 257 271 311 50 39 354 30 48 58 80 91 89 87 103 121 127 127 136 133 130 139 144 145 147 149 152 154 156 159 164 167 171 175 178 183 185 181 181 180 178 176 171 170 170 172 177
245 251 265 278 283 300 52 41 7 38 43 56 90 102 98 113 123 131 134 141 138 132 132 137 145 147 151 155 159 162 165 168 174 179 182 187 191 194 197 193 190 190 189 185 184 184 183 184 189
257 277 285 290 293 291 63 19 20 31 49 36 66 100 116 133 133 134 140 142 138 132 131 144 149 153 157 162 168 173 177 181 186 191 194 198 203 206 207 205 204 203 200 196 194 194 196 195 198
264 284 285 284 284 293 79 26 37 42 62 35 40 92 131 134 141 134 142 144 138 133 138 151 154 156 164 171 178 183 188 193 198 204 209 212 217 220 220 217 213 213 211 207 205 204 204 204 205
260 264 271 278 304 351 52 21 15 52 76 62 54 71 116 134 135 137 146 145 137 133 138 155 153 158 174 178 175 182 195 202 207 213 219 221 225 221 217 223 216 212 213 213 213 213 212 210 212
239 256 267 288 325 334 354 352 335 20 70 60 63 79 112 128 133 147 147 143 131 124 138 142 143 148 175 182 153 183 195 194 206 214 206 212 229 243 241 216 212 213 213 215 218 219 218 216 218
243 253 274 293 312 319 315 326 14 38 62 45 40 56 97 110 122 132 130 128 117 121 121 120 114 120 152 115 146 194 206 184 201 223 213 214 227 244 255 239 204 209 213 216 217 218 221 219 219
248 256 271 286 300 301 296 308 44 58 56 53 48 44 57 71 77 83 92 94 102 95 69 65 92 93 51 27 356 301 297 202 208 212 223 227 226 248 269 275 239 202 207 210 216 211 214 221 221
251 251 258 268 270 273 279 303 66 75 64 55 50 48 47 50 60 62 64 65 79 74 60 55 60 64 47 27 348 344 334 328 313 317 260 261 252 254 261 271 283 277 250 218 214 219 216 215 221
273 270 263 259 258 254 246 180 89 79 75 69 59 51 47 50 53 57 57 58 60 57 49 49 59 60 48 30 347 317 317 317 316 325 330 318 291 272 271 269 267 268 269 268 242 232 230 219 221
257 263 259 247 236 212 203 128 85 80 86 80 73 63 56 54 56 56 56 57 58 59 50 38 55 55 40 13 350 331 316 334 336 334 335 339 322 298 280 268 263 258 258 264 268 260 251 231 221
260 249 251 254 247 197 206 123 100 98 99 98 94 87 78 67 65 64 63 60 56 56 53 40 33 33 27 17 346 332 338 343 335 341 355 356 339 323 305 284 273 271 264 260 262 257 252 251 242
257 264 279 343 308 253 195 124 125 130 130 121 115 108 98 90 81 75 74 73 67 62 58 54 43 25 6 354 335 326 320 321 319 341 14 355 340 329 309 290 286 285 272 261 261 260 251 249 250
317 319 285 226 245 262 140 127 138 147 136 131 128 122 113 102 93 89 87 88 84 75 63 53 52 29 357 5 344 348 343 344 327 352 38 10 345 337 326 304 304 299 295 289 272 269 266 255 250
243 209 186 173 232 254 185 143 143 150 147 140 136 129 120 114 113 109 103 100 95 86 77 62 47 36 4 16 347 339 341 332 313 313 53 14 343 340 321 319 323 310 297 294 286 270 269 259 247
284 312 97 144 274 272 176 146 134 143 137 132 130 131 134 133 128 129 135 122 105 98 90 86 51 28 3 6 319 303 322 306 294 347 38 12 349 337 327 335 320 314 309 296 286 276 267 267 244
327 342 301 250 246 255 221 170 140 134 132 138 141 141 142 145 142 142 133 121 120 113 94 61 51 5 1 344 321 335 324 309 322 330 318 350 327 310 307 306 311 313 308 306 300 273 261 267 274
312 308 297 289 268 265 242 220 153 162 176 166 161 154 146 138 140 148 156 149 145 174 140 95 55 15 357 337 332 329 314 314 317 317 320 321 304 284 277 275 289 307 308 310 312 316 278 258 268
272 257 303 343 341 333 4 2 239 192 185 174 170 155 147 150 152 158 169 170 309 327 346 2 43 21 354 338 319 315 313 317 315 318 310 304 290 269 253 243 244 275 293 311 314 317 306 282 271
280 275 32 33 18 337 300 273 207 203 187 175 166 152 154 167 176 172 234 281 308 316 316 331 28 16 357 335 323 315 315 313 309 300 292 290 285 281 280 266 234 258 274 295 298 301 302 288 277
302 294 344 14 259 249 222 224 191 171 156 151 140 136 157 176 196 240 276 296 307 310 324 343 5 359 343 329 321 319 315 307 293 288 297 308 312 310 308 311 295 278 269 264 264 273 277 278 279
298 301 299 292 273 225 180 192 114 103 103 105 107 109 136 315 329 306 311 331 339 340 355 355 354 339 330 319 311 307 296 294 301 317 323 310 298 294 296 300 286 273 266 269 262 262 263 259 266
316 323 317 305 314 357 146 136 117 123 124 106 65 18 4 4 347 343 354 354 352 355 358 351 343 335 327 317 306 291 291 312 314 309 298 296 299 301 306 315 305 289 271 258 255 255 257 255 249
325 332 343 331 339 337 73 101 117 121 54 22 14 13 7 355 355 0 356 350 353 350 349 345 340 331 323 314 310 316 324 311 299 301 299 295 291 289 289 285 284 282 274 258 241 245 247 242 237
335 354 357 339 345 334 353 80 100 73 25 16 12 9 2 359 356 351 347 352 351 344 340 342 336 328 321 317 316 313 306 305 303 296 292 293 295 295 292 288 284 280 275 266 251 244 242 243 240
321 356 344 334 334 315 323 101 104 100 45 38 15 9 11 5 352 347 347 349 344 339 337 333 330 324 320 319 314 308 306 304 301 301 300 298 293 290 290 286 283 279 276 267 259 249 246 238 235